Content
SEND FEEDBACK

Daily
Averages
Monthly
Summary
Mexico

CIUDAD JUÁREZ - HIPÓDROMO, CHIHUAHUA


Home > North America > Mexico > Chihuahua
Elevation: 3675 feet     Latitude: 31 44N     Longitude: 106 24W

WEATHER
 
SELECT A DAY
Number of Records: 171,868;   Date Range: 1/1/95 - 7/23/14
 
SHARE

PRINT THIS DATA

[ ← Previous Day ]
WEATHER ALMANAC - OCTOBER 12, 2013
[ Next Day → ]
[ °C ]   °F
Weather ElementAverageHighLow
Temperature66.7 °F80.1 °F (2:51 pm)48.9 °F (4:51 am)
Dewpoint35.1 °F39.9 °F (11:51 pm)28.9 °F (8:51 am)
Humidity33 %61 % (4:51 am)20 % (2:51 pm)
Barometer29.91 in29.98 in (9:51 am)29.85 in (3:51 pm)
Wind Speed6.5 mph15 mph (8:51 am)
Weather ElementAverage
Visibility10 mi
Wind DirectionSSE (141.7 °)

Weather ElementTotal
Precipitation---
Heating Degree Days0.5 (Base 65)
Growing Degree Days14.5 (Base 50)
Averaged from 23 records on October 12, 2013
WEATHER CONDITIONS BREAKOUT
WIND DIRECTION BREAKOUT
WEATHER BY HOUR - OCTOBER 12, 2013
[ °C ]   °F
Local TimeTemperatureDewpointHumidityBarometerVisibilityWind DirectionWind SpeedGust SpeedPrecipitationEventsConditions
1:51 AM57.0 °F37.0 °F47 %29.87 in10.0 miNorth (350°)4.6 mphClear
2:51 AM55.9 °F37.0 °F49 %29.87 in10.0 miCalmClear
3:51 AM55.0 °F36.0 °F49 %29.87 in10.0 miNNE (30°)4.6 mphClear
4:51 AM48.9 °F36.0 °F61 %29.91 in10.0 miVariable3.5 mphClear
5:51 AM51.1 °F33.1 °F50 %29.93 in10.0 miNNE (20°)11.5 mphClear
6:51 AM52.0 °F30.0 °F43 %29.95 in10.0 miNorth (10°)11.5 mphPartly Cloudy
7:51 AM55.9 °F30.0 °F37 %29.96 in10.0 miNorth (350°)10.4 mphPartly Cloudy
8:51 AM60.1 °F28.9 °F31 %29.97 in10.0 miNorth (350°)15.0 mphPartly Cloudy
9:51 AM64.0 °F30.0 °F28 %29.98 in10.0 miNorth (360°)15.0 mphPartly Cloudy
10:51 AM69.1 °F32.0 °F25 %29.97 in10.0 miNorth (350°)8.1 mphPartly Cloudy
11:51 AM73.0 °F34.0 °F24 %29.96 in10.0 miNE (40°)4.6 mphClear
12:51 PM75.9 °F36.0 °F23 %29.92 in10.0 miCalmPartly Cloudy
1:51 PM78.1 °F37.9 °F24 %29.88 in10.0 miSSE (150°)6.9 mphPartly Cloudy
2:51 PM80.1 °F35.1 °F20 %29.86 in10.0 miSSE (160°)6.9 mphPartly Cloudy
3:51 PM80.1 °F35.1 °F20 %29.85 in10.0 miSouth (190°)5.8 mphPartly Cloudy
4:51 PM80.1 °F36.0 °F20 %29.85 in10.0 miVariable3.5 mphPartly Cloudy
5:51 PM79.0 °F37.0 °F22 %29.86 in10.0 miSouth (180°)4.6 mphPartly Cloudy
6:51 PM75.9 °F37.0 °F24 %29.87 in10.0 miSouth (180°)4.6 mphPartly Cloudy
7:51 PM72.0 °F35.1 °F26 %29.88 in10.0 miEast (90°)6.9 mphClear
8:51 PM66.9 °F36.0 °F32 %29.90 in10.0 miENE (70°)4.6 mphClear
9:51 PM69.1 °F39.0 °F33 %29.91 in10.0 miNNE (30°)6.9 mphClear
10:51 PM68.0 °F39.0 °F35 %29.91 in10.0 miNorth (10°)4.6 mphClear
11:51 PM66.9 °F39.9 °F37 %29.90 in10.0 miNNW (340°)4.6 mphClear
Hourly data recorded from KELP, located miles away from Ciudad Juárez - Hipódromo, Chihuahua







STORIES FROM OUR PARTNERS